This demonstration page uses our WeatherBlox Daily Observations layout. Learn more.

Left ArrowRight Arrow

39.51506, -84.39828

Hourly Observations for June 23, 2018

Temp ( °F °C ) Dew Point ( °F °C ) Humidity (%) Winds ( mph kmh ) Pressure ( in mb ) Visibility ( mi km ) Precip ( " mm )
12:15 am 00:15 Cloudy 70 20.9 67 19.7 93 93 S 7 11 29.71 1006 10 16 N/A
12:35 am 00:35 Cloudy with Light Rain 70 20.9 68 20 95 95 S 6 9 29.71 1006 7 11 N/A
12:55 am 00:55 Cloudy 69 20.6 68 20 96 96 SSW 6 9 29.71 1006 7 11 N/A
1:15 am 01:15 Partly Cloudy 69 20.5 67 19.5 94 94 SSW 7 11 29.71 1006 10 16 N/A
1:35 am 01:35 Clear 68 20.1 67 19.3 95 95 SW 7 11 29.71 1006 10 16 N/A
1:55 am 01:55 Clear 68 20 67 19.2 95 95 SSW 8 13 29.71 1006 10 16 N/A
2:15 am 02:15 Mostly Cloudy 68 20 66 19.1 95 95 SSW 7 11 29.71 1006 10 16 N/A
2:35 am 02:35 Partly Cloudy 67 19.6 66 18.9 96 96 SW 7 11 29.71 1006 10 16 N/A
2:55 am 02:55 Cloudy 68 19.9 67 19.2 96 96 SW 8 13 29.71 1006 10 16 N/A
3:15 am 03:15 Cloudy 68 20 67 19.2 95 95 SW 8 13 29.71 1006 10 16 N/A
3:35 am 03:35 Cloudy 68 20.2 67 19.2 94 94 SW 9 15 29.71 1006 10 16 N/A
3:55 am 03:55 Cloudy 68 20 66 19 94 94 SW 6 9 29.71 1006 10 16 N/A
4:15 am 04:15 Mostly Cloudy 68 19.8 66 18.9 95 95 SW 7 11 29.71 1006 10 16 N/A
4:35 am 04:35 Mostly Cloudy 67 19.6 66 18.8 95 95 SW 7 11 29.71 1006 10 16 N/A
4:55 am 04:55 Cloudy 67 19.7 66 18.9 95 95 SW 7 11 29.74 1007 10 16 N/A
5:15 am 05:15 Cloudy 67 19.6 66 18.8 95 95 SW 7 11 29.74 1007 10 16 N/A
5:35 am 05:35 Partly Cloudy 67 19.2 65 18.6 96 96 SSW 9 15 29.74 1007 10 16 N/A
5:55 am 05:55 Partly Cloudy 67 19.2 65 18.6 96 96 SW 9 15 29.74 1007 10 16 N/A
6:15 am 06:15 Mostly Cloudy 67 19.2 65 18.6 96 96 SW 7 11 29.74 1007 10 16 N/A
6:35 am 06:35 Cloudy 67 19.5 65 18.6 95 95 SW 10 17 29.74 1007 10 16 N/A
6:55 am 06:55 Cloudy 67 19.6 66 18.7 95 95 SSW 12 19 29.77 1008 10 16 N/A
7:15 am 07:15 Cloudy 67 19.7 65 18.5 93 93 SSW 10 17 29.77 1008 10 16 N/A
7:35 am 07:35 Cloudy 67 19.7 65 18.5 93 93 SSW 12 19 29.77 1008 10 16 N/A
7:55 am 07:55 Cloudy with Rain 67 19.5 65 18.6 95 95 SSW 8 13 29.77 1008 5 8 N/A
8:10 am 08:10 Cloudy 67 19.6 65 18.6 94 94 SW 9 15 29.77 1008 10 16 N/A
8:35 am 08:35 Partly Cloudy 69 20.6 66 18.9 90 90 SW 9 15 29.77 1008 10 16 N/A
8:55 am 08:55 Cloudy 70 21 66 18.9 88 88 SW 10 17 29.77 1008 10 16 N/A
9:15 am 09:15 Cloudy 71 21.4 66 18.7 85 85 SW 10 17 29.77 1008 10 16 N/A
9:35 am 09:35 Cloudy 71 21.5 66 18.7 84 84 SW 10 17 29.80 1009 10 16 N/A
9:55 am 09:55 Cloudy 70 21 66 18.7 87 87 SW 12 19 29.80 1009 10 16 N/A
10:15 am 10:15 Cloudy 71 21.8 66 18.7 83 83 SW 8 13 29.80 1009 10 16 N/A
10:35 am 10:35 Cloudy 71 21.5 65 18.5 83 83 SW 10 17 29.80 1009 10 16 N/A
10:55 am 10:55 Cloudy 72 22.3 66 18.9 81 81 WSW 9 15 29.80 1009 10 16 N/A
11:15 am 11:15 Cloudy 73 22.9 66 18.9 78 78 SW 12 19 29.80 1009 10 16 N/A
11:35 am 11:35 Mostly Cloudy 74 23.5 67 19.2 77 77 SW 10 17 29.80 1009 10 16 N/A
11:55 am 11:55 Cloudy 74 23.6 66 18.9 75 75 WSW 10 17 29.80 1009 10 16 N/A
12:15 pm 12:15 Cloudy 75 23.9 66 18.9 74 74 WSW 12 19 29.80 1009 10 16 N/A
12:35 pm 12:35 Cloudy 74 23.6 66 18.9 75 75 WSW 8 13 29.80 1009 10 16 N/A
12:55 pm 12:55 Cloudy 75 23.9 66 18.8 73 73 WSW 9 15 29.80 1009 10 16 N/A
1:15 pm 13:15 Mostly Cloudy 76 24.5 65 18.1 68 68 WSW 12 19 29.80 1009 10 16 N/A
1:35 pm 13:35 Cloudy 75 24.1 66 19.1 74 74 SSW 12 19 29.80 1009 10 16 N/A
1:55 pm 13:55 Cloudy 76 24.4 67 19.2 73 73 SSW 12 19 29.80 1009 10 16 N/A
2:15 pm 14:15 Cloudy 77 25.2 67 19.7 72 72 SSW 13 20 29.80 1009 10 16 N/A
2:35 pm 14:35 Cloudy 78 25.4 67 19.6 70 70 SSW 14 22 29.80 1009 10 16 N/A
2:55 pm 14:55 Cloudy 76 24.4 66 18.9 72 72 SSW 9 15 29.80 1009 10 16 N/A
3:15 pm 15:15 Cloudy 76 24.7 67 19.3 72 72 SSW 13 20 29.80 1009 10 16 N/A
3:35 pm 15:35 Mostly Cloudy 77 25 65 18.3 66 66 SW 10 17 29.80 1009 10 16 N/A
3:55 pm 15:55 Mostly Cloudy 78 25.7 66 18.9 66 66 WSW 12 19 29.80 1009 10 16 N/A
4:15 pm 16:15 Mostly Cloudy 77 25.2 66 19 69 69 WSW 7 11 29.80 1009 10 16 N/A
4:35 pm 16:35 Cloudy 76 24.2 65 18.6 71 71 SW 12 19 29.80 1009 10 16 N/A
4:55 pm 16:55 Cloudy 77 24.9 66 19 70 70 WSW 10 17 29.80 1009 10 16 N/A
5:15 pm 17:15 Cloudy 76 24.5 66 18.7 70 70 WSW 12 19 29.80 1009 10 16 N/A
5:35 pm 17:35 Mostly Cloudy 78 25.4 65 18.4 65 65 SW 13 20 29.80 1009 10 16 N/A
5:55 pm 17:55 Cloudy 77 25.2 66 18.9 68 68 WSW 12 19 29.80 1009 10 16 N/A
6:15 pm 18:15 Cloudy 76 24.5 65 18.6 70 70 SW 12 19 29.80 1009 10 16 N/A
6:35 pm 18:35 Cloudy 76 24.2 65 18.6 71 71 WSW 12 19 29.80 1009 10 16 N/A
6:55 pm 18:55 Cloudy 75 24.1 65 18.6 71 71 WSW 8 13 29.80 1009 10 16 N/A
7:15 pm 19:15 Cloudy 75 24.1 66 18.8 72 72 WSW 8 13 29.80 1009 10 16 N/A
7:35 pm 19:35 Cloudy 75 23.8 66 18.7 73 73 WSW 6 9 29.80 1009 10 16 N/A
7:55 pm 19:55 Cloudy 75 23.7 66 18.7 74 74 WSW 6 9 29.83 1010 10 16 N/A
8:15 pm 20:15 Cloudy 74 23.6 65 18.6 74 74 WSW 6 9 29.83 1010 10 16 N/A
8:35 pm 20:35 Cloudy 74 23.4 65 18.5 74 74 WSW 5 7 29.83 1010 10 16 N/A
8:55 pm 20:55 Cloudy 73 22.9 66 18.8 78 78 SW 3 6 29.83 1010 10 16 N/A
9:15 pm 21:15 Cloudy 72 22.4 67 19.2 82 82 WSW 3 6 29.83 1010 10 16 N/A
9:35 pm 21:35 Cloudy 71 21.9 67 19.6 87 87 N N/A 29.83 1010 10 16 N/A
9:55 pm 21:55 Cloudy 71 21.6 68 19.8 90 90 N N/A 29.83 1010 10 16 N/A
10:15 pm 22:15 Partly Cloudy 70 21 68 19.9 93 93 N N/A 29.83 1010 10 16 N/A
10:35 pm 22:35 Partly Cloudy 69 20.3 67 19.4 95 95 N N/A 29.83 1010 10 16 N/A
10:55 pm 22:55 Cloudy 68 20 67 19.3 96 96 N N/A 29.83 1010 10 16 N/A
11:15 pm 23:15 Cloudy 69 20.5 67 19.7 95 95 N N/A 29.83 1010 10 16 N/A
11:35 pm 23:35 Mostly Cloudy 68 20 66 19 94 94 N N/A 29.83 1010 10 16 N/A
11:55 pm 23:55 Cloudy 67 19.7 67 19.2 97 97 N N/A 29.83 1010 10 16 N/A

Powered by AerisWeather